Westhampton Beach, NY

8:33 AM EDT on September 25, 2016 (GMT -0400)
The Gabreski

Weather History for KFOK - February, 2012

Change the Weather History Date:

Wednesday, February 22, 2012

  Actual Average Record
Temperature  
Mean Temperature 42 °F -  
Max Temperature 55 °F 39 °F 55 °F (2012)
Min Temperature 30 °F 22 °F 10 °F (2006)
Degree Days  
Heating Degree Days 22    
Moisture  
Dew Point 36 °F    
Average Humidity 81    
Maximum Humidity 100    
Minimum Humidity 37    
Precipitation  
Precipitation 0.00 in - - ()
Sea Level Pressure  
Sea Level Pressure 29.73 in    
Wind  
Wind Speed 4 mph (SW)    
Max Wind Speed 15 mph    
Max Gust Speed 24 mph    
Visibility 7 miles    
Events Fog , Rain    
Averages and records for this station are not official NWS values.
T = Trace of Precipitation, MM = Missing Value Source: NWS Daily Summary

Daily Weather History Graph

Daily Weather History Graph

Search for Another Location

Airport or City:

Trip Planner

Search our weather history database for the weather conditions in past years. The results will help you decide how hot, cold, wet, or windy it might be!

Date:

Astronomy

Feb. 22, 2012 Rise Set
Actual Time 6:35 AM EST 5:32 PM EST
Civil Twilight 6:07 AM EST 6:00 PM EST
Nautical Twilight 5:36 AM EST 6:32 PM EST
Astronomical Twilight 5:04 AM EST 7:04 PM EST
Moon 6:31 AM EST (2/22) 6:37 PM EST (2/22)
Length of Visible Light 11h 52m
Length of Day
10h 57m
New Moon, 1% of the Moon is Illuminated
Feb 22
New Moon
Feb 29
First Quarter
Mar 8
Full
Mar 14
Last Quarter
Mar 22
New

Hourly Weather History & Observations

Time (EST) Temp. Windchill Dew Point Humidity Pressure Visibility Wind Dir Wind Speed Gust Speed Precip Events Conditions
12:53 AM 37.9 °F - 36.0 °F 93% 29.87 in 8.0 mi Calm Calm - N/A   Clear
1:53 AM 39.9 °F 36.7 °F 37.9 °F 93% 29.85 in 10.0 mi SSW 4.6 mph - N/A   Clear
2:53 AM 39.0 °F 36.8 °F 37.9 °F 96% 29.82 in 5.0 mi SW 3.5 mph - N/A   Clear
3:53 AM 39.0 °F - 37.0 °F 93% 29.80 in 6.0 mi Calm Calm - N/A   Clear
4:53 AM 37.9 °F - 37.0 °F 97% 29.79 in 4.0 mi Calm Calm - N/A   Overcast
5:44 AM 35.6 °F - 35.6 °F 100% 29.77 in 1.8 mi Calm Calm - N/A   Clear
6:03 AM 32.0 °F - 32.0 °F 100% 29.76 in 0.2 mi Calm Calm - N/A Fog Fog
6:09 AM 33.8 °F - 32.0 °F 93% 29.77 in 0.5 mi Calm Calm - N/A Fog Fog
6:27 AM 32.0 °F - 32.0 °F 100% 29.76 in 0.5 mi Calm Calm - N/A Fog Fog
6:43 AM 30.2 °F - 30.2 °F 100% 29.77 in 0.2 mi Calm Calm - N/A Fog Light Freezing Fog
6:53 AM 30.9 °F - 30.9 °F 100% 29.77 in 0.2 mi Calm Calm - N/A Fog Light Freezing Fog
7:25 AM 33.8 °F - 32.0 °F 93% 29.78 in 1.0 mi Calm Calm - N/A   Mist
7:37 AM 37.4 °F 33.8 °F 35.6 °F 93% 29.78 in 5.0 mi WSW 4.6 mph - N/A   Partly Cloudy
7:53 AM 41.0 °F 37.1 °F 39.0 °F 93% 29.78 in 7.0 mi WSW 5.8 mph - N/A   Clear
8:53 AM 45.0 °F 38.9 °F 39.9 °F 82% 29.79 in 10.0 mi WSW 12.7 mph - N/A   Clear
9:53 AM 48.9 °F - 39.9 °F 71% 29.78 in 10.0 mi WSW 9.2 mph - N/A   Clear
10:53 AM 50.0 °F - 39.9 °F 68% 29.77 in 10.0 mi SW 6.9 mph - N/A   Clear
11:53 AM 51.1 °F - 39.0 °F 63% 29.75 in 10.0 mi SW 12.7 mph - N/A   Clear
12:53 PM 51.1 °F - 36.0 °F 56% 29.71 in 10.0 mi SW 11.5 mph 19.6 mph N/A   Clear
1:53 PM 53.1 °F - 32.0 °F 45% 29.69 in 10.0 mi SW 11.5 mph 20.7 mph N/A   Clear
2:53 PM 55.0 °F - 28.9 °F 37% 29.68 in 10.0 mi SW 13.8 mph 21.9 mph N/A   Clear
3:53 PM 52.0 °F - 28.9 °F 41% 29.66 in 10.0 mi WSW 10.4 mph - N/A   Clear
4:53 PM 50.0 °F - 30.0 °F 46% 29.65 in 10.0 mi SSW 8.1 mph - N/A   Clear
5:53 PM 46.0 °F 41.9 °F 39.0 °F 76% 29.66 in 10.0 mi SSW 8.1 mph - N/A   Clear
6:53 PM 45.0 °F 40.6 °F 41.0 °F 86% 29.67 in 10.0 mi SSW 8.1 mph - N/A   Clear
7:53 PM 44.1 °F 40.1 °F 41.0 °F 89% 29.66 in 9.0 mi SSW 6.9 mph - N/A   Clear
8:53 PM 46.9 °F - 41.0 °F 80% 29.65 in 10.0 mi SSW 15.0 mph 24.2 mph N/A   Scattered Clouds
9:53 PM 46.0 °F 43.1 °F 42.1 °F 86% 29.62 in 10.0 mi South 5.8 mph - N/A   Mostly Cloudy
10:53 PM 46.9 °F - 43.0 °F 86% 29.59 in 10.0 mi SSW 5.8 mph - 0.00 in   Overcast
11:53 PM 48.0 °F - 44.1 °F 86% 29.55 in 10.0 mi SSE 4.6 mph - 0.00 in Rain Light Rain